Milford, UT

3:26 PM MDT on August 28, 2016 (GMT -0600)
Milford Municipal

Weather History for KMLF - May, 2013

Change the Weather History Date:

Tuesday, May 21, 2013

  Actual Average Record
Temperature  
Mean Temperature 56 °F -  
Max Temperature 79 °F 76 °F 91 °F (2012)
Min Temperature 34 °F 40 °F 33 °F (2002)
Degree Days  
Heating Degree Days 8    
Growing Degree Days 6 (Base 50)    
Moisture  
Dew Point 27 °F    
Average Humidity 39    
Maximum Humidity 86    
Minimum Humidity 4    
Precipitation  
Precipitation 0.00 in - - ()
Sea Level Pressure  
Sea Level Pressure 29.88 in    
Wind  
Wind Speed 9 mph (SSW)    
Max Wind Speed 24 mph    
Max Gust Speed 31 mph    
Visibility 10 miles    
Events      
Averages and records for this station are not official NWS values.
T = Trace of Precipitation, MM = Missing Value Source: NWS Daily Summary

Daily Weather History Graph

Daily Weather History Graph

Search for Another Location

Airport or City:

Trip Planner

Search our weather history database for the weather conditions in past years. The results will help you decide how hot, cold, wet, or windy it might be!

Date:

Astronomy

May. 21, 2013 Rise Set
Actual Time 6:15 AM MDT 8:42 PM MDT
Civil Twilight 5:45 AM MDT 9:12 PM MDT
Nautical Twilight 5:08 AM MDT 9:50 PM MDT
Astronomical Twilight 4:26 AM MDT 10:31 PM MDT
Moon 5:02 PM MDT (5/21) 3:42 AM MDT (5/21)
Length of Visible Light 15h 27m
Length of Day
14h 26m
Waxing Gibbous, 84% of the Moon is Illuminated
May 21
Waxing Gibbous
May 24
Full
May 31
Last Quarter
Jun 8
New
Jun 16
First Quarter

Hourly Weather History & Observations

Time (MDT) Temp. Windchill Dew Point Humidity Pressure Visibility Wind Dir Wind Speed Gust Speed Precip Events Conditions
12:52 AM 44.1 °F 42.5 °F 36.0 °F 73% 30.06 in 10.0 mi South 3.5 mph - N/A   Clear
1:52 AM 42.1 °F - 36.0 °F 79% 30.05 in 10.0 mi Calm Calm - N/A   Clear
2:52 AM 39.9 °F 35.8 °F 35.1 °F 83% 30.04 in 10.0 mi SW 5.8 mph - N/A   Clear
3:52 AM 37.0 °F 34.5 °F 33.1 °F 86% 30.03 in 10.0 mi South 3.5 mph - N/A   Clear
4:52 AM 37.0 °F 32.4 °F 33.1 °F 86% 30.02 in 10.0 mi SSW 5.8 mph - N/A   Clear
5:52 AM 35.1 °F 30.1 °F 30.9 °F 85% 30.02 in 10.0 mi South 5.8 mph - N/A   Clear
6:52 AM 37.0 °F 33.3 °F 33.1 °F 86% 30.01 in 10.0 mi South 4.6 mph - N/A   Clear
7:52 AM 44.1 °F 39.5 °F 36.0 °F 73% 30.00 in 10.0 mi South 8.1 mph - N/A   Clear
8:52 AM 52.0 °F - 35.1 °F 53% 29.99 in 10.0 mi SSW 11.5 mph - N/A   Clear
9:52 AM 57.0 °F - 36.0 °F 45% 29.98 in 10.0 mi South 9.2 mph - N/A   Clear
10:52 AM 62.1 °F - 36.0 °F 38% 29.95 in 10.0 mi South 10.4 mph - N/A   Clear
11:52 AM 66.9 °F - 35.1 °F 31% 29.92 in 10.0 mi SSW 11.5 mph - N/A   Clear
12:52 PM 70.0 °F - 27.0 °F 20% 29.88 in 10.0 mi SSE 15.0 mph 19.6 mph N/A   Clear
1:52 PM 73.0 °F - 19.9 °F 14% 29.86 in 10.0 mi SW 15.0 mph - N/A   Clear
2:52 PM 73.9 °F - 21.9 °F 14% 29.83 in 10.0 mi SSW 15.0 mph 21.9 mph N/A   Clear
3:52 PM 78.1 °F - 21.9 °F 12% 29.79 in 10.0 mi SSW 20.7 mph 24.2 mph N/A   Clear
4:52 PM 75.9 °F - 19.0 °F 12% 29.77 in 10.0 mi SW 18.4 mph 27.6 mph N/A   Clear
5:52 PM 77.0 °F - 16.0 °F 10% 29.74 in 10.0 mi SW 20.7 mph 31.1 mph N/A   Clear
6:52 PM 75.0 °F - 14.0 °F 10% 29.72 in 10.0 mi SW 24.2 mph 28.8 mph N/A   Clear
7:52 PM 72.0 °F - 16.0 °F 12% 29.71 in 10.0 mi SW 20.7 mph 28.8 mph N/A   Clear
8:52 PM 66.0 °F - 16.0 °F 15% 29.71 in 10.0 mi SSW 16.1 mph - N/A   Clear
9:52 PM 62.1 °F - 18.0 °F 18% 29.71 in 10.0 mi SSW 11.5 mph - N/A   Clear
10:52 PM 55.9 °F - 23.0 °F 28% 29.72 in 10.0 mi SW 6.9 mph - N/A   Clear
11:52 PM 53.1 °F - 21.0 °F 29% 29.69 in 10.0 mi SW 10.4 mph - N/A   Clear